Wind_Speed
7 7 7 6 6 6 7 7 7 7 8 9 9 9 10 9 9 9 11 10 10 10 9 9 8 8 7 6 6 6 5 5 5 5 5 6 6 5 5 5 4 4 4 4 4 3 3 2 1
7 7 7 7 7 7 7 7 7 7 8 9 9 10 10 10 10 10 11 11 10 10 9 8 8 9 8 6 6 6 5 4 4 5 5 5 5 5 5 5 4 4 4 3 3 3 2 2 1
7 7 7 7 7 7 7 7 7 7 8 9 10 10 11 10 10 11 11 11 11 10 9 9 8 8 8 7 6 6 5 4 4 4 5 5 5 5 5 4 4 3 3 3 2 2 2 2 1
7 7 8 8 7 7 8 8 8 7 8 8 9 10 11 11 11 11 12 11 11 10 9 9 9 8 8 7 7 6 4 3 3 4 4 4 4 4 4 3 3 2 2 2 2 2 2 2 2
7 7 8 8 8 8 8 8 8 8 7 8 9 10 11 12 11 11 12 11 11 10 9 9 10 9 8 7 7 5 4 4 3 3 3 3 3 3 2 2 1 1 2 2 2 2 2 3 3
7 7 8 9 8 8 8 9 9 9 8 9 10 11 11 12 12 12 12 12 11 10 9 9 10 9 8 7 6 5 4 4 3 4 3 3 3 2 2 1 1 1 2 2 2 2 3 3 4
7 8 8 9 9 8 9 9 9 9 9 9 10 11 11 11 12 12 12 12 12 11 9 10 10 9 8 6 6 4 3 3 3 3 3 3 2 1 1 1 1 2 2 2 3 3 3 4 4
7 8 8 9 8 8 9 9 9 10 10 10 11 11 11 11 12 12 12 12 11 10 10 10 10 9 7 6 5 4 3 3 3 3 2 2 1 1 2 2 2 3 3 3 3 4 4 5 5
7 8 9 9 9 9 9 9 10 11 11 11 11 12 11 12 13 12 12 12 12 11 10 10 9 8 7 6 5 4 3 2 2 1 1 1 1 2 2 3 3 4 4 4 5 5 5 6 6
7 8 9 9 9 9 9 9 10 11 11 11 10 11 12 12 13 13 13 12 11 11 10 9 8 8 7 6 5 4 3 2 2 1 0 1 2 2 3 3 3 4 4 5 6 6 6 7 7
7 8 9 9 9 9 9 9 10 10 10 11 11 11 12 13 14 13 12 11 10 10 10 8 7 7 7 6 5 4 3 2 2 1 0 1 2 2 3 3 4 5 5 6 6 6 7 7 7
7 8 9 9 9 9 9 9 9 10 10 10 11 11 12 13 13 13 12 11 10 10 9 8 7 7 7 6 5 4 3 2 2 1 1 2 2 3 3 4 5 6 6 6 7 7 7 7 7
7 7 8 9 9 9 9 9 10 9 10 11 11 11 12 12 12 11 11 11 10 9 9 9 9 7 7 6 5 4 3 2 2 1 1 2 2 3 4 4 5 6 7 7 7 8 7 7 7
6 7 8 9 9 10 10 10 10 10 10 11 11 11 12 12 12 11 11 10 10 9 9 9 9 8 7 6 5 4 3 2 2 1 1 2 3 3 4 5 6 7 7 7 8 8 8 8 7
6 7 8 9 9 10 10 10 10 10 10 11 11 11 11 11 11 11 10 11 10 9 8 9 9 8 8 6 6 5 3 3 1 1 1 2 3 4 4 5 6 7 7 8 8 8 8 8 7
6 7 8 9 9 10 10 10 10 10 10 10 10 11 11 11 11 11 10 10 10 9 9 9 9 8 8 7 6 5 4 3 2 1 2 2 3 3 4 5 6 7 8 8 8 8 8 8 7
6 7 7 8 8 8 9 9 10 10 11 10 11 11 11 11 11 11 11 10 10 9 9 9 9 8 8 7 6 5 4 3 2 1 1 2 2 3 4 5 7 8 8 9 8 8 7 7 7
6 7 8 8 8 9 8 9 10 10 10 10 10 11 11 11 11 10 10 10 10 10 10 9 9 9 8 7 6 5 4 3 2 1 2 2 2 3 4 6 7 8 9 9 8 8 7 7 7
7 8 8 8 9 9 9 9 10 10 10 10 10 10 11 11 10 10 10 10 10 10 10 10 10 9 8 7 6 5 4 3 2 2 2 2 2 3 5 6 7 8 8 8 8 7 7 7 7
7 7 7 8 8 9 9 9 11 11 10 10 10 10 11 11 11 10 10 10 10 10 10 9 9 9 8 7 6 5 4 3 2 1 2 2 3 4 5 6 7 7 7 8 8 7 7 7 6
7 7 7 7 8 9 9 9 10 11 11 10 11 10 11 11 10 10 10 10 10 10 10 9 9 9 9 7 6 5 4 4 3 2 2 2 3 4 5 6 6 6 7 7 7 7 7 6 6
6 6 7 7 8 8 9 9 10 11 11 11 10 10 10 10 10 9 10 10 10 10 10 10 9 9 8 7 6 5 5 4 4 3 2 3 3 4 5 5 6 6 6 7 7 7 6 6 6
7 7 7 8 7 8 8 9 10 10 11 11 11 10 11 11 10 10 10 10 10 10 10 9 9 8 8 7 6 5 5 4 4 3 3 3 4 4 5 5 5 6 6 6 6 6 6 6 6
7 7 7 8 8 8 9 9 10 10 11 11 10 10 10 11 10 10 11 11 11 11 10 10 9 9 8 8 7 6 5 4 4 3 4 4 4 4 5 5 5 5 6 6 6 6 6 6 7
8 7 6 7 8 8 8 9 10 9 10 10 10 10 11 11 11 11 11 11 11 11 11 10 10 10 9 8 8 7 6 5 4 4 4 4 5 4 4 5 5 5 5 6 6 6 6 7 7
8 8 8 8 8 8 9 9 9 9 9 10 10 11 11 11 11 11 11 11 12 12 11 11 11 10 10 10 9 8 7 6 5 5 5 5 5 5 4 4 4 5 5 6 6 7 7 7 7
9 9 9 8 8 8 9 9 9 9 9 10 10 11 11 11 12 11 11 11 12 12 12 12 11 11 11 10 10 9 8 7 7 6 6 6 6 5 5 5 5 5 6 6 6 6 7 7 7
11 10 10 9 8 8 8 9 9 10 10 10 10 10 10 11 11 12 12 12 12 13 13 13 12 11 11 11 10 10 9 8 8 7 6 6 7 6 5 5 6 6 6 7 7 7 8 8 9
11 11 10 10 10 9 8 9 9 10 11 11 10 10 10 10 11 11 12 12 12 13 13 13 13 12 12 12 12 11 10 9 8 8 8 7 7 6 6 6 7 7 7 7 7 8 9 9 10
13 12 10 10 10 10 9 10 9 10 10 11 10 10 11 11 11 11 12 12 13 13 13 13 12 13 13 12 12 11 11 10 9 9 8 8 7 7 7 7 7 7 7 8 8 9 10 10 10
Wind_Direction
228 227 224 219 217 218 217 208 207 201 196 191 188 183 177 180 179 180 176 174 171 167 164 161 156 150 146 145 142 132 123 115 103 98 92 87 87 93 96 90 86 83 81 79 75 71 66 61 55
227 224 219 215 215 215 211 208 207 201 196 193 190 188 183 180 179 179 179 178 175 171 167 165 162 157 155 154 146 134 124 114 105 104 100 97 98 99 97 95 86 79 75 73 69 66 63 50 35
224 221 216 213 211 210 210 208 206 202 191 191 190 189 186 179 178 180 179 179 178 174 173 170 169 164 164 158 150 144 136 126 117 113 109 104 105 105 104 98 89 78 66 62 56 47 35 23 3
219 216 213 210 209 211 211 209 205 200 196 192 189 188 187 182 180 180 179 175 174 169 170 171 172 168 164 158 152 146 140 138 128 118 112 109 111 108 106 98 82 62 53 47 36 19 0 344 330
218 209 207 208 207 208 206 205 204 204 198 196 191 186 184 180 178 179 178 175 172 169 171 176 175 172 168 160 159 152 133 124 125 119 111 112 112 107 93 92 71 40 32 22 7 345 330 319 312
211 206 204 205 206 206 204 203 201 201 196 190 187 187 184 184 182 178 177 176 173 174 175 176 176 171 167 164 162 158 146 134 129 119 113 106 101 94 72 54 31 11 6 352 342 330 320 316 310
206 203 200 203 205 205 204 198 195 195 193 188 187 184 182 181 182 181 178 175 178 180 178 173 172 169 169 172 172 166 160 156 139 126 118 113 94 63 28 22 2 353 346 334 324 317 308 308 305
203 203 199 199 202 204 199 194 191 190 192 188 184 180 179 180 180 182 176 177 177 178 175 173 170 170 172 173 174 174 155 159 146 132 122 115 101 347 341 348 337 327 327 328 324 318 308 303 300
200 200 200 198 201 201 196 194 188 187 186 184 182 182 181 178 174 178 178 181 182 181 176 175 174 177 179 180 182 176 167 163 163 131 111 89 40 356 343 335 327 323 318 319 316 314 306 300 296
198 199 200 199 199 197 194 193 190 188 187 187 183 185 182 177 176 179 181 181 183 183 180 175 179 183 183 182 185 177 173 177 188 162 96 34 10 356 353 340 328 329 325 318 313 312 307 301 296
196 196 197 194 193 192 192 191 189 186 188 190 185 182 182 178 180 180 183 182 184 184 184 184 184 185 188 190 189 184 182 189 196 180 60 350 349 348 348 345 342 337 332 325 318 315 311 305 299
193 194 194 192 190 187 187 187 187 185 186 188 185 181 181 182 183 184 188 187 186 187 190 192 193 195 191 183 185 184 185 197 190 194 278 324 343 339 341 346 342 338 333 327 324 320 314 309 300
193 190 186 188 187 183 185 186 183 183 186 183 182 182 181 182 186 189 192 194 190 191 196 198 197 194 189 183 187 189 185 188 194 206 287 322 337 335 339 340 336 335 331 327 325 322 319 314 306
191 187 182 182 184 184 183 184 185 187 189 187 184 182 184 186 189 192 195 196 195 196 198 199 198 194 191 191 193 195 196 194 187 221 292 308 320 328 333 334 333 334 332 328 326 323 320 318 313
180 178 181 182 185 186 185 185 186 188 192 191 187 184 187 188 192 193 194 195 196 198 198 200 200 194 193 194 196 201 204 189 195 232 283 299 312 322 329 332 333 335 334 332 328 324 321 319 315
175 175 177 178 181 188 189 186 186 189 191 190 190 190 189 190 192 194 196 199 198 198 197 196 195 195 199 199 199 195 191 195 213 252 283 296 308 320 329 333 336 336 338 337 333 328 322 320 317
175 177 179 181 184 187 190 192 192 192 193 193 192 192 192 192 195 198 199 200 200 202 200 199 197 202 201 200 197 193 197 204 217 268 294 307 315 326 334 336 337 338 338 337 338 335 331 328 325
181 183 185 188 190 189 189 192 193 194 198 198 195 195 194 196 197 198 198 200 203 205 202 202 201 202 201 202 200 202 212 219 229 264 293 308 316 326 329 332 337 340 340 339 339 338 336 334 332
183 187 189 188 188 191 191 193 192 193 200 202 202 201 199 198 198 201 203 205 205 204 202 203 204 203 204 204 205 210 217 224 230 259 296 310 311 320 326 332 339 342 342 342 342 341 342 341 339
185 186 187 188 192 194 194 195 197 197 201 203 204 206 205 205 205 206 206 205 204 203 202 201 203 204 205 206 209 212 216 219 223 268 306 315 311 317 326 334 339 342 342 341 342 344 344 345 342
192 190 187 187 192 196 199 203 206 208 208 208 209 210 209 209 211 213 209 206 205 206 205 204 206 204 204 206 212 216 221 223 235 265 300 307 307 317 327 335 340 341 341 343 344 345 346 348 347
196 195 191 188 192 199 203 208 211 214 215 216 214 214 214 212 214 218 216 213 211 209 208 208 208 206 205 209 213 219 225 227 237 254 286 295 301 314 324 332 338 339 340 344 349 351 353 353 353
199 202 201 199 200 203 207 211 216 216 216 217 217 217 216 214 214 219 221 221 217 212 210 212 215 208 208 214 218 224 230 236 238 253 276 286 295 311 326 332 337 340 341 345 351 354 356 358 356
205 207 212 212 212 212 214 216 221 220 218 217 216 217 217 217 219 220 222 223 221 218 215 216 218 215 215 219 222 228 234 235 239 254 268 281 292 308 325 331 333 338 344 347 350 350 350 351 351
211 212 216 218 222 222 221 222 222 220 218 219 220 220 218 219 222 221 221 222 220 218 217 218 220 219 221 222 226 232 234 238 244 256 268 279 288 300 317 326 331 338 345 348 346 346 346 346 345
214 214 217 221 226 225 224 224 225 223 222 223 223 222 220 220 221 220 220 220 217 216 217 220 222 222 223 225 230 235 238 244 251 260 266 275 282 288 302 313 324 332 338 342 341 344 345 344 342
217 219 221 222 228 231 231 229 228 226 224 223 221 222 222 221 220 220 220 221 218 217 219 223 225 224 226 230 232 235 239 246 254 261 266 272 278 282 288 297 309 320 327 331 334 337 341 341 341
221 220 222 223 227 232 235 236 235 229 225 224 223 222 222 221 220 222 223 221 219 220 221 224 227 226 229 232 235 237 241 247 256 261 264 273 277 278 283 291 301 309 318 323 325 328 332 332 333
223 223 225 229 234 232 235 239 235 229 225 225 225 225 224 221 220 222 225 226 224 226 226 227 227 229 231 234 237 240 241 248 255 260 266 273 275 275 280 287 296 303 309 314 317 321 325 326 326
224 224 228 234 237 234 234 238 236 232 228 228 227 228 228 226 224 224 225 227 229 231 230 232 234 233 232 235 238 240 244 249 255 259 263 267 269 273 279 284 292 297 302 308 312 316 318 320 323
Height
5875 5876 5877 5879 5880 5881 5881 5882 5882 5883 5884 5884 5885 5886 5887 5888 5890 5894 5892 5892 5894 5894 5895 5896 5897 5898 5898 5899 5900 5900 5901 5901 5901 5901 5901 5900 5900 5900 5899 5899 5899 5898 5898 5898 5897 5897 5897 5897 5896
5874 5875 5876 5877 5878 5879 5880 5880 5881 5882 5882 5883 5884 5885 5886 5887 5888 5890 5890 5892 5893 5894 5895 5896 5897 5898 5899 5899 5900 5901 5901 5901 5901 5901 5901 5901 5900 5900 5900 5900 5899 5899 5898 5898 5898 5897 5897 5897 5896
5872 5873 5875 5876 5877 5878 5879 5879 5880 5880 5881 5882 5883 5884 5885 5886 5888 5889 5890 5891 5893 5894 5895 5896 5897 5898 5899 5899 5900 5901 5901 5901 5901 5901 5901 5901 5901 5901 5900 5900 5899 5899 5899 5898 5898 5897 5897 5897 5896
5871 5872 5874 5875 5875 5876 5877 5878 5878 5879 5880 5881 5882 5883 5884 5885 5887 5888 5889 5891 5892 5893 5895 5896 5897 5898 5898 5899 5900 5901 5901 5901 5902 5901 5901 5901 5901 5901 5901 5900 5900 5899 5899 5898 5898 5897 5897 5896 5896
5869 5871 5872 5873 5874 5875 5875 5876 5877 5878 5879 5880 5881 5882 5883 5885 5886 5887 5889 5890 5892 5893 5894 5895 5896 5898 5898 5899 5900 5901 5901 5902 5902 5901 5901 5901 5901 5901 5901 5900 5900 5899 5899 5898 5898 5897 5897 5896 5895
5868 5869 5871 5871 5872 5873 5874 5875 5876 5877 5878 5879 5880 5882 5882 5884 5886 5887 5889 5890 5891 5893 5894 5895 5896 5897 5898 5899 5900 5901 5901 5902 5901 5902 5901 5901 5901 5901 5901 5900 5899 5899 5899 5898 5897 5897 5896 5895 5895
5867 5868 5868 5870 5871 5872 5873 5874 5875 5876 5877 5878 5880 5881 5882 5883 5885 5886 5888 5889 5891 5892 5893 5895 5896 5897 5898 5900 5900 5901 5902 5902 5901 5901 5901 5901 5901 5901 5900 5900 5899 5899 5898 5898 5897 5896 5895 5895 5894
5865 5867 5867 5868 5870 5871 5872 5873 5874 5875 5876 5878 5879 5880 5882 5883 5884 5886 5887 5889 5891 5892 5893 5895 5896 5897 5898 5899 5900 5901 5902 5902 5901 5901 5901 5901 5901 5901 5900 5900 5899 5898 5898 5897 5896 5895 5895 5894 5893
5863 5866 5866 5867 5869 5869 5870 5872 5873 5874 5875 5877 5878 5880 5882 5883 5884 5886 5887 5889 5891 5892 5893 5894 5896 5897 5898 5899 5900 5901 5901 5901 5901 5901 5901 5901 5901 5900 5900 5899 5899 5898 5897 5896 5895 5894 5893 5893 5892
5862 5863 5865 5866 5867 5868 5869 5871 5872 5873 5875 5876 5878 5879 5881 5882 5884 5886 5887 5889 5890 5892 5893 5894 5896 5897 5898 5899 5900 5900 5901 5901 5901 5901 5901 5901 5900 5900 5899 5899 5898 5897 5896 5895 5894 5893 5892 5891 5890
5861 5862 5863 5865 5866 5868 5869 5870 5872 5873 5875 5876 5877 5879 5880 5882 5884 5885 5887 5889 5890 5892 5893 5894 5896 5896 5897 5899 5900 5900 5900 5901 5901 5901 5901 5901 5901 5900 5899 5898 5898 5897 5896 5894 5893 5892 5891 5890 5889
5860 5861 5862 5864 5866 5867 5869 5870 5871 5873 5875 5876 5877 5878 5880 5882 5884 5885 5887 5889 5890 5891 5893 5894 5895 5896 5897 5898 5899 5900 5900 5901 5901 5901 5901 5901 5900 5900 5899 5898 5897 5896 5895 5894 5892 5891 5890 5888 5887
5859 5860 5862 5863 5865 5866 5868 5870 5871 5873 5874 5875 5877 5878 5880 5882 5883 5885 5887 5888 5889 5891 5892 5894 5895 5896 5897 5898 5899 5900 5900 5900 5900 5900 5901 5900 5900 5900 5899 5898 5896 5895 5894 5893 5891 5890 5888 5887 5886
5859 5860 5862 5863 5865 5866 5868 5870 5871 5873 5874 5876 5877 5879 5880 5882 5883 5885 5887 5888 5890 5891 5892 5893 5894 5895 5897 5898 5899 5899 5900 5900 5900 5900 5900 5900 5900 5899 5898 5897 5896 5895 5893 5892 5890 5889 5887 5886 5884
5859 5861 5862 5863 5864 5866 5868 5870 5871 5872 5874 5875 5877 5878 5880 5881 5883 5885 5886 5888 5889 5890 5891 5893 5894 5895 5896 5897 5898 5899 5899 5899 5900 5900 5900 5899 5899 5898 5898 5897 5895 5894 5892 5891 5889 5887 5886 5884 5883
5860 5862 5863 5864 5865 5866 5869 5870 5871 5872 5874 5875 5876 5878 5879 5881 5883 5884 5886 5888 5889 5890 5891 5892 5893 5895 5896 5897 5898 5898 5899 5899 5899 5899 5899 5899 5898 5898 5897 5896 5895 5893 5891 5890 5888 5886 5884 5883 5881
5860 5862 5863 5864 5865 5866 5868 5869 5871 5872 5873 5875 5876 5877 5879 5881 5882 5884 5885 5887 5888 5889 5891 5892 5893 5894 5895 5896 5897 5898 5898 5899 5899 5899 5899 5898 5898 5897 5896 5895 5894 5892 5890 5889 5887 5885 5883 5882 5880
5860 5862 5863 5864 5865 5866 5868 5869 5870 5871 5873 5874 5876 5877 5879 5880 5882 5883 5885 5886 5888 5889 5890 5891 5892 5894 5895 5896 5897 5898 5898 5898 5898 5898 5898 5898 5897 5897 5896 5895 5893 5891 5890 5888 5886 5884 5882 5881 5879
5860 5861 5862 5864 5865 5866 5867 5869 5870 5871 5873 5874 5875 5877 5878 5880 5881 5883 5884 5885 5887 5888 5889 5890 5892 5893 5894 5895 5896 5897 5897 5898 5898 5898 5898 5897 5897 5896 5895 5894 5892 5891 5889 5887 5885 5883 5881 5880 5878
5859 5861 5862 5863 5864 5866 5867 5868 5869 5871 5872 5874 5875 5876 5878 5879 5881 5882 5883 5885 5886 5887 5889 5890 5891 5892 5893 5894 5896 5896 5897 5897 5897 5897 5897 5897 5896 5896 5895 5893 5892 5890 5888 5886 5884 5883 5881 5879 5877
5859 5860 5861 5863 5864 5865 5867 5868 5869 5871 5872 5873 5874 5876 5877 5879 5880 5881 5883 5884 5886 5887 5888 5889 5890 5891 5893 5894 5895 5896 5896 5897 5897 5897 5896 5896 5895 5895 5894 5892 5891 5889 5888 5886 5884 5882 5880 5879 5877
5858 5859 5861 5862 5864 5865 5867 5868 5869 5870 5871 5872 5874 5875 5876 5878 5879 5881 5882 5883 5885 5886 5887 5888 5890 5891 5892 5893 5894 5895 5895 5896 5896 5896 5896 5895 5895 5894 5893 5892 5890 5889 5887 5885 5883 5882 5880 5878 5877
5858 5859 5860 5861 5863 5864 5865 5867 5868 5868 5870 5871 5873 5874 5875 5877 5878 5880 5881 5883 5884 5885 5886 5888 5889 5890 5891 5892 5893 5894 5895 5895 5895 5895 5895 5895 5894 5893 5892 5891 5890 5888 5886 5885 5883 5881 5880 5878 5876
5856 5858 5859 5860 5862 5863 5864 5865 5867 5867 5869 5870 5871 5873 5874 5875 5877 5878 5880 5881 5883 5884 5886 5887 5888 5889 5891 5892 5893 5893 5894 5894 5894 5894 5894 5894 5893 5892 5891 5890 5889 5887 5886 5884 5883 5881 5879 5878 5876
5856 5858 5859 5860 5861 5863 5863 5863 5865 5866 5867 5868 5869 5871 5872 5873 5875 5876 5878 5880 5881 5883 5884 5886 5887 5888 5889 5891 5891 5892 5893 5893 5893 5893 5893 5893 5892 5891 5890 5889 5888 5887 5885 5884 5882 5881 5879 5877 5875
5854 5856 5859 5860 5860 5861 5861 5862 5864 5864 5865 5866 5867 5869 5870 5872 5873 5875 5876 5878 5879 5881 5883 5884 5885 5887 5888 5889 5890 5891 5892 5892 5892 5892 5892 5892 5891 5890 5889 5888 5887 5886 5885 5883 5882 5880 5878 5877 5875
5852 5854 5856 5857 5858 5859 5860 5861 5862 5862 5863 5864 5865 5867 5868 5870 5871 5873 5874 5876 5878 5880 5881 5883 5884 5885 5887 5888 5889 5889 5890 5890 5890 5890 5890 5890 5890 5889 5888 5887 5886 5885 5884 5882 5881 5879 5878 5876 5874
5851 5852 5853 5855 5856 5857 5858 5859 5860 5860 5861 5862 5863 5865 5866 5868 5869 5871 5873 5874 5876 5878 5879 5881 5882 5884 5885 5886 5887 5888 5888 5889 5888 5889 5889 5888 5888 5887 5886 5886 5885 5884 5883 5881 5880 5878 5877 5875 5873
5849 5850 5851 5852 5854 5855 5856 5859 5857 5858 5859 5860 5862 5863 5864 5866 5867 5869 5871 5872 5874 5876 5877 5879 5880 5882 5883 5884 5885 5885 5886 5886 5887 5887 5887 5886 5886 5885 5885 5884 5883 5882 5881 5880 5879 5877 5875 5874 5872
5845 5847 5849 5850 5851 5852 5854 5857 5855 5856 5857 5858 5859 5861 5862 5864 5865 5867 5868 5870 5872 5873 5875 5876 5878 5879 5881 5882 5882 5883 5884 5884 5884 5885 5884 5884 5884 5883 5883 5882 5881 5880 5879 5878 5877 5875 5874 5872 5870